Regional Weather Roundup
Issued by NWS

Home | Current Version | Previous Version | Text Only | Print | Product List | Glossary Off
Versions: 1 2 3 4 5 6 7 8 9 10 11 12 13 14 15 16 17 18 19 20 21 22 23 24 25 26 27 28 29 30 31 32 33 34 35 36 37 38 39 40 41 42 43 44 45 46 47 48 49 50

000
ASUS45 KABQ 280801
RWRNM
WEATHER ROUNDUP FOR NEW MEXICO
NATIONAL WEATHER SERVICE ALBUQUERQUE NM
100 AM MST FRI NOV 28 2014

NOTE: "FAIR" MEANS FEW OR NO CLOUDS BELOW 12,000 FEET AGL WITH NO
       SIGNIFICANT WEATHER OR OBSTRUCTIONS TO VISION.

      THIS PRODUCT IS RELEASED AS TWO VERSIONS.  ONE VERSION NEAR
      THE TOP OF THE HOUR CONTAINING PRELIMINARY DATA FROM ALBUQUERQUE
      AND OTHER STATIONS.  A FINAL VERSION WITH ADDITIONAL DATA IS
      ISSUED ABOUT 10 MINUTES AFTER THE HOUR.

NMZ501-503-504-510>518-280900-
NORTHWEST PLATEAU/NORTHCENTRAL MOUNTAINS

CITY           SKY/WX    TMP DP  RH WIND       PRES   REMARKS
FARMINGTON     CLEAR     29  20  69 E7        30.31F WCI  22
SANTA FE       MOCLDY    34  18  52 VRB3      30.32F
TAOS           PTCLDY    27  21  80 N6        30.35S WCI  20

$$
NMZ402-403-502-505>509-280900-
WESTCENTRAL MOUNTAINS/SOUTHWEST MOUNTAINS

CITY           SKY/WX    TMP DP  RH WIND       PRES   REMARKS
GALLUP         MOCLDY    28   9  44 NE3       30.34F
SILVER CITY    CLEAR     37  19  48 N12       30.33F WCI  30

$$
NMZ407-409-411-412-280900-
SOUTHERN DESERTS

CITY           SKY/WX    TMP DP  RH WIND       PRES   REMARKS
LORDSBURG      FAIR      34  19  55 CALM      30.28S
DEMING         PTCLDY    34  19  54 W7        30.28F WCI  28
HOLLOMAN AFB   PTCLDY    34  19  52 N2        30.28F
T OR C         CLEAR     40  19  43 W8        30.29F WCI  34

$$
NMZ519>523-280900-
CENTRAL VALLEYS/CENTRAL HIGHLANDS

CITY           SKY/WX    TMP DP  RH WIND       PRES   REMARKS
ALBUQUERQUE    MOCLDY    42  20  41 NW5       30.31F
DOUBLE EAGLE   MOCLDY    31  15  51 CALM      30.32F
MORIARTY ARPT  FAIR      22  18  85 N5        30.33F WCI  16
CLINES CORNERS MOCLDY    37  20  50 W13       30.30F WCI  29
BELEN          FAIR      32  16  52 NW5       30.31F WCI  27
SOCORRO        FAIR      34  19  53 CALM      30.31F

$$
NMZ524>526-539-540-280900-
SOUTHCENTRAL MOUNTAINS

CITY           SKY/WX    TMP DP  RH WIND       PRES   REMARKS
RUIDOSO        CLEAR     41   9  26 CALM      30.35S

$$
NMZ527>531-280900-
NORTHEAST HIGHLANDS/NORTHEAST PLAINS

CITY           SKY/WX    TMP DP  RH WIND       PRES   REMARKS
LAS VEGAS      CLOUDY    41  12  30 N3        30.27F
RATON          PTCLDY    30  19  63 E7        30.22F WCI  23
CLAYTON        PTCLDY    51  16  24 W14       30.12F

$$
NMZ532>537-280900-
EASTCENTRAL PLAINS

CITY           SKY/WX    TMP DP  RH WIND       PRES   REMARKS
TUCUMCARI      CLOUDY    45  29  53 SW12      30.14F
CANNON AFB     PTCLDY    41  28  58 W14       30.19F
CLOVIS AIRPORT PTCLDY    41  27  56 W17       30.18F

$$
NMZ028-029-538-280900-
SOUTHEAST PLAINS

CITY           SKY/WX    TMP DP  RH WIND       PRES   REMARKS
ROSWELL        PTCLDY    31  26  82 CALM      30.22F
CARLSBAD       CLEAR     35  29  78 CALM      30.21F
HOBBS          PTCLDY    37  28  70 SW7       30.24F WCI  32


$$


USA.gov is the U.S. government's official web portal to all federal, state and local government web resources and services.